Regional Weather Roundup
Issued by NWS Charleston, SC

Current Version | Previous Version | Text Only | Print | Product List | Glossary Off
Versions: 1 2 3 4 5 6 7 8 9 10 11 12 13 14 15 16 17 18 19 20 21 22 23 24 25 26 27 28 29 30 31 32 33 34 35 36 37 38 39 40 41 42 43 44 45 46 47 48 49 50

000
ASUS42 KCHS 231910
RWRCHS
REGIONAL WEATHER ROUNDUP
NATIONAL WEATHER SERVICE CHARLESTON SC
300 PM EDT TUE SEP 23 2014

NOTE: "FAIR" INDICATES FEW OR NO CLOUDS BELOW 12,000 FEET WITH NO
SIGNIFICANT WEATHER AND/OR OBSTRUCTIONS TO VISIBILITY.

NOT ALL STATIONS ARE QUALITY CONTROLLED BY THE NATIONAL
WEATHER SERVICE. USE DATA WITH CAUTION...ESPECIALLY
DEWPOINT OBSERVATIONS.

SCZ027-030-031-034>040-042>050-232000-
...SOUTH CAROLINA...

CITY           SKY/WX    TMP DP  RH WIND       PRES   REMARKS
N CHARLESTON   LGT RAIN  69  65  86 NE14      30.15F
WATERFRONT PRK NOT AVBL
FORT JOHNSON   NOT AVBL
MOUNT PLEASANT LGT RAIN  68  66  94 NE7       30.14F
JOHNS ISLAND   RAIN      70  70 100 NE13      30.14S VSB 1
PINOPOLIS        N/A     66  64  94 NE14      30.10S
MONCKS CORNER  LGT RAIN  66  66 100 N7G16     30.18S
SUMMERVILLE    DRIZZLE   66  64  94 N10G20    30.17F
BEAUFORT MCAS  PTSUNNY   73  65  75 MISG      30.13F
BEAUFORT ARPT  MOCLDY    72  68  88 NE17      30.13S
HILTON HEAD IS PTSUNNY   72  66  83 N14G23    30.13F
GEORGETOWN     NOT AVBL
WALTERBORO     CLOUDY    70  70 100 NE9       30.17S
ORANGEBURG     CLOUDY    63  58  83 NE12      30.20S
BARNWELL       CLOUDY    70  64  83 NE8       30.19F
AIKEN          CLOUDY    72  63  73 NE10      30.24S
MANNING        CLOUDY    63  63 100 NE8       30.21F
KINGSTREE      NOT AVBL
COLUMBIA       CLOUDY    68  58  70 NE12      30.22F
SUMTER         PTSUNNY   67  56  69 NE20G26   30.22F
FLORENCE       LGT RAIN  61  56  83 NE16      30.21F
MYRTLE BEACH   PTSUNNY   64  61  88 N12       30.18F
N MYRTLE BEACH LGT RAIN  66  61  84 N13       30.18F

$$

GAZ063-065-086>088-099>101-113>116-118-119-134-136>141-150-232000-
...GEORGIA...

CITY           SKY/WX    TMP DP  RH WIND       PRES   REMARKS
SAVANNAH ARPT  CLOUDY    77  65  66 N16G23    30.12F
HUNTER AAF     PTSUNNY   77  66  69 NE10      30.09F
FORT STEWART   MOSUNNY   80  64  56 NE12      30.08F
STATESBORO     NOT AVBL
SYLVANIA       MOCLDY    77  69  77 NE13      30.16S
CLAXTON        FAIR      79  70  73 N9        30.12F
THOMSON        MOSUNNY   77  67  70 NE10      30.22F
AUGUSTA-BUSH   CLOUDY    74  62  66 NE13      30.18F
AUGUSTA-DANIEL CLOUDY    75  61  61 NE10G18   30.19F
SWAINSBORO     FAIR      77  68  73 E8        30.16F
VIDALIA        CLOUDY    77  64  65 NE14      30.14F HAZE
ALMA           MOSUNNY   82  61  48 VRB7G18   30.09F
WAYCROSS       PTSUNNY   86  66  52 E15G21    30.07F
JESUP          FAIR      84  68  58 NE13G20   30.08F
BRUNSWICK      CLOUDY    75  68  78 NE10      30.09F
SAINT SIMONS   PTSUNNY   79  67  66 NE15G24   30.08S

$$

SCZ027-028-034-036>038-045-046-048>050-GAZ119-141-232000-
...LAKE AND SUPPLEMENTAL COASTAL OBSERVATIONS...

STATION/POSITION TIME  TEMP    WIND        PRES    WAVE   SWELL
                       AIR SEA DIR/SP/G            HT/PER HT/PER/DIR
                 (UTC) (F)     (DEG/KT/KT) (MB)    (FT/S) (FT/S/D)
UPR LAKE MARION  NOT AVBL
WINYAH BAY       1800   67      10/  6     1022.0S
LAKE MURRAY      1800   66      30/  5/  8 1023.4S
ACE BASIN NERRS  1800   68      10/  3     1021.0S
FORT PULASKI     1900   72      10/ 17/ 21 1019.7F
SAPELO ISLAND    1800   71      40/  6     1019.0F

$$

ANZ835-935-AMZ111-154-330-350-352-354-374-450-454-472-232000-
...C-MAN AND BUOY OBSERVATIONS...

STATION/POSITION TIME  TEMP    WIND        PRES    WAVE   SWELL
                       AIR SEA DIR/SP/G            HT/PER HT/PER/DIR
                 (UTC) (F)     (DEG/KT/KT) (MB)    (FT/S) (FT/S/D)
FOLLY BEACH CMAN 1800   70      50/ 17/ 19 1020.8F
BUOY 41004       1900   74 81   20/ 25/ 31 1018.0F   7/ 6   2/13
BUOY 41008       1900   75 82   60/ 21/ 25 1018.0F   5/ 5
5E ST. MARYS GA  1900      82                N/A     5/ 6
FRYING PAN BUOY  NOT AVBL
BUOY 41025       1900   73      10/ 23/ 29 1021.0F   6/ 6
CAPE LOOKOUT NC  1800   69      20/ 18/ 22 1021.9F
BUOY 41002       1818   78 80  120/ 12/ 14 1018.3F   3/ 7   2/100/ 7
BUOY 41010       1900   82 85  160/ 12/ 16 1016.1F   2/ 9   2/ 80/ 9
BUOY 41012       NOT AVBL
ST AUGUSTINE FL  1900   76      10/ 20/ 21 1017.0F
CAPERS NEARSHORE 1800   70      50/ 23/ 27   N/A
FRIPP NEARSHORE  NOT AVBL


$$



USA.gov is the U.S. government's official web portal to all federal, state and local government web resources and services.